Bellingham, WA
on Wednesday, November 14, 2012

Wednesday
Previous Day Next Day
Daily Summary
 ActualAverageRecord
Temperature
Mean Temperature °F 44°F  
Max Temperature 50°F 50°F 63°F (2004)
Min Temperature 33°F 37°F 9°F (1955)
Degree Days
Heating Degree Days 24 21  
Month to date heating degree days 279  
Cooling Degree Days 0 0  
Month to date cooling degree days 0  
Year to date cooling degree days 42  
Moisture
Dew Point 42°F   
Average Humidity 93    
Maximum Humidity 100    
Minimum Humidity 82    
Precipitation
Precipitation 0.00 in 0.20 in 0.88 in (1998)
Month to date precipitation 2.73  
Year to date precipitation 28.54  
Wind
Wind Speed 1 mph   
Max Wind Speed 6 mph   
Max Gust Speed mph   
Visibility 5 miles   
Events Fog   

Key: T is trace of precipitation, MM is missing value
Source: NWS Daily Summary
Time(PST)TemperatureDew PointHumidity Pressure Visibility Wind DirectionWind SpeedGust SpeedPrecipitationEvents Conditions
12:11 AM 46.4°F 44.6°F 93% 30.18 in 4.0 miles Calm Calm - N/A   Overcast
12:30 AM 46.4°F 44.6°F 93% 30.17 in 4.0 miles Calm Calm - N/A   Overcast
12:53 AM 46.0°F 44.1°F 93% 30.20 in 3.0 miles Calm Calm - N/A   Overcast
1:53 AM 46.0°F 45.0°F 96% 30.21 in 3.0 miles Calm Calm - N/A   Overcast
2:53 AM 46.0°F 45.0°F 96% 30.22 in 4.0 miles Calm Calm - N/A   Overcast
3:01 AM 46.4°F 44.6°F 93% 30.20 in 4.0 miles Calm Calm - N/A   Overcast
3:48 AM 44.6°F 42.8°F 93% 30.19 in 2.5 miles Calm Calm - N/A   Mostly Cloudy
3:53 AM 45.0°F 43.0°F 93% 30.22 in 2.0 miles Calm Calm - N/A   Mostly Cloudy
4:00 AM 44.6°F 42.8°F 93% 30.19 in 1.2 miles Calm Calm - N/A   Mostly Cloudy
4:09 AM 44.6°F 44.6°F 100% 30.20 in 3.0 miles Calm Calm - N/A   Overcast
4:53 AM 45.0°F 44.1°F 97% 30.25 in 8.0 miles Calm Calm - N/A   Overcast
5:43 AM 44.6°F 44.6°F 100% 30.23 in 5.0 miles Calm Calm - N/A   Overcast
5:53 AM 45.0°F 44.1°F 97% 30.25 in 4.0 miles Calm Calm - N/A   Overcast
6:53 AM 46.0°F 44.1°F 93% 30.26 in 10.0 miles Calm Calm - N/A   Overcast
7:40 AM 46.4°F 44.6°F 93% 30.26 in 6.0 miles Calm Calm - N/A   Overcast
7:53 AM 46.0°F 45.0°F 96% 30.29 in 5.0 miles Calm Calm - N/A   Overcast
8:21 AM 46.4°F 44.6°F 93% 30.27 in 4.0 miles Calm Calm - N/A   Overcast
8:53 AM 46.0°F 45.0°F 96% 30.30 in 5.0 miles Calm Calm - N/A   Overcast
9:53 AM 46.9°F 45.0°F 93% 30.32 in 6.0 miles Calm Calm - N/A   Overcast
10:53 AM 48.0°F 45.0°F 89% 30.33 in - North - - N/A   Overcast
11:00 AM 48.2°F 46.4°F 93% 30.30 in - Calm Calm - N/A   Unknown
11:26 AM 48.2°F 46.4°F 93% 30.31 in 10.0 miles South 3.5 mph - N/A   Mostly Cloudy
11:39 AM 50.0°F 46.4°F 87% 30.31 in 10.0 miles Calm Calm - N/A   Overcast
11:53 AM 48.9°F 46.0°F 90% 30.33 in 10.0 miles SSE 4.6 mph - N/A   Mostly Cloudy
12:00 PM 50.0°F 46.4°F 87% 30.31 in 10.0 miles South 3.5 mph - N/A   Overcast
12:08 PM 48.2°F 46.4°F 93% 30.31 in 10.0 miles South 4.6 mph - N/A   Mostly Cloudy
12:24 PM 48.2°F 46.4°F 93% 30.31 in 10.0 miles South 5.8 mph - N/A   Overcast
12:53 PM 48.9°F 45.0°F 86% 30.33 in 10.0 miles South 3.5 mph - N/A   Overcast
1:02 PM 50.0°F 46.4°F 87% 30.31 in 10.0 miles Calm Calm - N/A   Overcast
1:29 PM 50.0°F 44.6°F 82% 30.31 in 10.0 miles West 4.6 mph - N/A   Overcast
1:37 PM 50.0°F 44.6°F 82% 30.31 in 10.0 miles Calm Calm - N/A   Overcast
1:53 PM 48.9°F 44.1°F 83% 30.34 in 10.0 miles Calm Calm - N/A   Overcast
2:53 PM 48.9°F 45.0°F 86% 30.34 in 10.0 miles SSE 4.6 mph - N/A   Overcast
3:21 PM 48.2°F 44.6°F 87% 30.31 in 10.0 miles SSE 4.6 mph - N/A   Overcast
3:53 PM 48.0°F 44.1°F 86% 30.34 in 10.0 miles South 4.6 mph - N/A   Mostly Cloudy
4:53 PM 46.9°F 45.0°F 93% 30.35 in 10.0 miles Calm Calm - N/A   Overcast
5:53 PM 44.1°F 42.1°F 93% 30.35 in 5.0 miles Calm Calm - N/A   Partly Cloudy
6:34 PM 42.8°F 39.2°F 87% 30.32 in 6.0 miles Calm Calm - N/A   Scattered Clouds
6:53 PM 41.0°F 39.0°F 93% 30.35 in 6.0 miles Calm Calm - N/A   Scattered Clouds
7:45 PM 37.4°F 37.4°F 100% 30.32 in 6.0 miles Calm Calm - N/A   Scattered Clouds
7:53 PM 39.0°F 37.9°F 96% 30.35 in 6.0 miles Calm Calm - N/A   Scattered Clouds
8:08 PM 37.4°F 37.4°F 100% 30.32 in 3.0 miles Calm Calm - N/A   Mostly Cloudy
8:12 PM 37.4°F 37.4°F 100% 30.32 in 0.2 miles Calm Calm - N/A Fog Fog
8:45 PM 39.2°F 37.4°F 93% 30.32 in 4.0 miles Calm Calm - N/A   Scattered Clouds
8:53 PM 39.0°F 37.0°F 93% 30.35 in 4.0 miles Calm Calm - N/A   Scattered Clouds
9:53 PM 37.0°F 36.0°F 96% 30.35 in 4.0 miles Calm Calm - N/A   Scattered Clouds
10:00 PM 37.4°F 37.4°F 100% 30.32 in 0.5 miles Calm Calm - N/A Fog Fog
10:53 PM 36.0°F 35.1°F 97% 30.34 in 0.2 miles Calm Calm - N/A Fog Fog
11:06 PM 33.8°F 33.8°F 100% 30.31 in 0.2 miles Calm Calm - N/A Fog Fog
11:15 PM 35.6°F 35.6°F 100% 30.31 in 1.0 miles Calm Calm - N/A   Mist
11:22 PM 35.6°F 33.8°F 93% 30.30 in 0.8 miles Calm Calm - N/A   Mist
11:32 PM 35.6°F 33.8°F 93% 30.30 in 0.2 miles Calm Calm - N/A Fog Fog
11:42 PM 33.8°F 33.8°F 100% 30.30 in 0.2 miles North 3.5 mph - N/A Fog Fog
11:53 PM 34.0°F 33.1°F 96% 30.33 in 0.2 miles NNW 3.5 mph - N/A Fog Fog
Moon Phase
Nov. 14 Nov. 20 Nov. 28 Dec. 06 Dec. 13
Sunrise:07:18 AM (PST) Moon Rise:08:19 AM (PST)11/14
Sunset:04:30 PM (PST) Moon Set:05:18 PM (PST)11/14

Copyright © 2014 The Weather Underground, Inc.